COSMOS 2522 (752)

Last updated on Tue Dec 09 2025 00:03:23 GMT+0000 (Coordinated Universal Time)

1 42939U 17055A 25342.13459564 .00000051 00000+0 00000+0 0 9992 2 42939 64.0758 198.3860 0006448 225.1717 134.8539 2.13101881 63907
UTC large
Height (km)
Speed (km/s)
/
Latitude / Longitude
Inclination (degrees)
Orbital Period (minutes)
Azimuth
Elevation
Range (km)
Doppler Factor

Next 0 passes for location: London (51.5072 / 0.1276)

Sorry there are no passes over London.